Regional Weather Roundup
Issued by NWS

Home | Current Version | Previous Version | Text Only | Print | Product List | Glossary Off
Versions: 1 2 3 4 5 6 7 8 9 10 11 12 13 14 15 16 17 18 19 20 21 22 23 24 25 26 27 28 29 30 31 32 33 34 35 36 37 38 39 40 41 42 43 44 45 46 47 48 49 50

365
ASUS43 KDMX 091506
RWRIA

WEATHER ROUNDUP FOR IOWA
NATIONAL WEATHER SERVICE DES MOINES IA
900 AM CST FRI DEC 09 2016

NOTE: "FAIR" INDICATES FEW OR NO CLOUDS BELOW 12,000 FEET WITH NO
SIGNIFICANT WEATHER AND/OR OBSTRUCTIONS TO VISIBILITY.

* - THESE STATIONS ARE NOT NWS STATIONS...THUS NOT UNDER NWS
QUALITY CONTROL.  THEY ALSO DO NOT REPORT WEATHER SUCH
AS PRECIPITATION OR FOG.

IAZ001>003-012>014-020>022-031>034-043>046-091600-
   NORTHWEST IOWA

CITY           SKY/WX    TMP DP  RH WIND       PRES   REMARKS
CARROLL *      CLOUDY     9   5  85 W7        30.60S WCI  -3
CHEROKEE *     CLOUDY     5   2  88 W3        30.60R
DENISON *      MOSUNNY    7   5  92 CALM      30.58F
LE MARS *      CLOUDY     5   1  85 NW5       30.62R WCI  -4
ORANGE CITY *  CLOUDY     3   1  92 CALM      30.57R
SHELDON *      CLOUDY     3   1  92 CALM      30.56R
SIOUX CITY     CLOUDY     8   2  76 NW5       30.63R WCI   0
SPENCER        MOSUNNY    5   1  83 W14       30.58R WCI -12
STORM LAKE *   CLOUDY     5   1  85 W3        30.57R
$$

IAZ055>058-069>071-079>083-090>094-091600-
   SOUTHWEST IOWA

CITY           SKY/WX    TMP DP  RH WIND       PRES   REMARKS
ATLANTIC *     SUNNY      9   5  85 CALM      30.62R
AUDUBON *      SUNNY      9   5  85 CALM      30.60R
CLARINDA *     MOSUNNY   10   9  92 CALM      30.66R
COUNCIL BLFS * CLOUDY    10   7  85 CALM      30.62R
CRESTON *      SUNNY     10   7  85 N3        30.61R
HARLAN  *      MOSUNNY    9   5  85 CALM      30.64S
LAMONI         SUNNY     12   8  84 N5        30.60S WCI   4
RED OAK *      PTSUNNY   10   7  85 CALM      30.63R
SHENANDOAH *   CLOUDY    12   9  85 CALM      30.65R
$$

IAZ047>049-059>061-072>074-084-091600-
   CENTRAL IOWA

CITY           SKY/WX    TMP DP  RH WIND       PRES   REMARKS
AMES           MOSUNNY   12   8  84 NW7       30.62R WCI   1
ANKENY *       MOSUNNY   12   9  85 W7        30.64R WCI   2
BOONE *        MOSUNNY   10   5  79 W7        30.60R WCI   0
CHARITON *     SUNNY     12   9  85 NW7       30.62R WCI   2
DES MOINES     PTSUNNY   13   7  77 NW7       30.63R WCI   3
GRINNELL*      FLURRIES  13  10  88 W7        30.60R WCI   3
KNOXVILLE *    SUNNY     12   7  79 NW8       30.61R WCI   1
MARSHALLTOWN   MOSUNNY   13   9  84 W7        30.59R WCI   3
NEWTON *       SUNNY     12   9  85 NW5       30.60R WCI   4
PELLA *        SUNNY     14   8  79 W7        30.64R WCI   3
PERRY *          N/A     10   8  89 W8        30.63R WCI  -1
$$

IAZ004>006-015-016-023>025-035-036-091600-
   NORTH CENTRAL IOWA

CITY           SKY/WX    TMP DP  RH WIND       PRES   REMARKS
ALGONA *       MOSUNNY    9   5  85 W7        30.58R WCI  -3
CLARION *      MOSUNNY   10   7  85 NW10      30.59R WCI  -3
ESTHERVILLE    SUNNY      5   2  87 NW5       30.56R WCI  -4
FORT DODGE *   MOSUNNY    9   3  78 W5        30.60R WCI   0
MASON CITY     MOSUNNY   10   6  84 NW8       30.57R WCI  -2
FOREST CITY *    N/A     10   9  92 NW7       30.56R WCI   0
WEBSTER CITY * SUNNY     10   7  85 W10       30.57R WCI  -3
IOWA FALLS *     N/A     13   9  85 W7        30.58S WCI   2
$$

IAZ007>011-017>019-026>030-037>042-050>054-066-091600-
   NORTHEAST IOWA

CITY           SKY/WX    TMP DP  RH WIND       PRES   REMARKS
CEDAR RAPIDS   SUNNY     14  11  87 W9        30.58R WCI   2
CHARLES CITY * MOSUNNY   10   7  85 W6        30.56S WCI   1
CLINTON *      SUNNY     17  13  84 NW9       30.58R WCI   6
DECORAH *      MOSUNNY   12  10  92 VRB5      30.53S WCI   4
DUBUQUE        SUNNY     14  10  84 NW7       30.54R WCI   4
MONTICELLO *   SUNNY     14   9  79 NW12      30.57R WCI   0
OELWEIN *      SUNNY     10   9  92 NW10      30.56S WCI  -3
WATERLOO       SUNNY     14   8  77 NW6       30.59R WCI   5
$$

IAZ064-065-067-068-078-091600-
   EAST CENTRAL IOWA

CITY           SKY/WX    TMP DP  RH WIND       PRES   REMARKS
DAVENPORT      MOSUNNY   17  12  80 NW10      30.58R WCI   5
IOWA CITY      SUNNY     17  10  74 NW9       30.62R WCI   6
MUSCATINE *    SUNNY     19  10  68 W10       30.63R WCI   8
QUAD CITIES    PTSUNNY   20  11  68 NW7       30.59R WCI  11
$$

IAZ062-063-075>077-085>089-095>099-091600-
   SOUTHEAST IOWA

CITY           SKY/WX    TMP DP  RH WIND       PRES   REMARKS
BURLINGTON     CLOUDY    19  11  70 NW8       30.61R WCI   9
FAIRFIELD *    CLOUDY    16   7  67 NW7       30.62R WCI   6
FORT MADISON * CLOUDY    19  12  73 N7        30.62R WCI  10
KEOKUK *       FLURRIES  19  12  73 NW5       30.61R WCI  13
OSKALOOSA *      N/A     14  11  85 W10       30.63R WCI   2
CENTERVILLE *    N/A     14  10  85 W5        30.63R WCI   6
OTTUMWA        PTSUNNY   15   9  76 W8        30.62R WCI   4
WASHINGTON *   SUNNY     16  10  79 NW12      30.63R WCI   3
$$

ABBREVIATIONS USED IN REMARKS
   TC - TEMPERATURES IN CELSIUS
  WCI - WIND CHILL INDEX
   HX - HEAT INDEX
  VSB - VISIBILITY
$$





USA.gov is the U.S. government's official web portal to all federal, state and local government web resources and services.